FDX17 KSEA-PANC

Flight info

Callsign FDX17
Flight time N/A
Altitude 34000
Route BANGR9 ARRIE FOCHE PRYCE BKA LAIRE JOH WITTI5
Aircraft B77L/H-SDE1E2E3FGHIJ2J3J4J5M1RWXY/LB1D1

Departure

Time 2026-05-04 10:49
Airport Seattle–Tacoma International Airport (KSEA)

Arrival

Time N/A
Airport Ted Stevens Anchorage International Airport (PANC)
Time Latitude Longitude Altitude Speed Heading
2026-05-04 10:08 47.45447 -122.30399 441 ft 0 kts 41°
2026-05-04 10:08 47.45447 -122.30400 441 ft 0 kts 41°
2026-05-04 10:31 47.45442 -122.30407 441 ft 2 kts 47°
2026-05-04 10:32 47.45472 -122.30505 441 ft 2 kts 179°
2026-05-04 10:33 47.45486 -122.30505 441 ft 1 kts 184°
2026-05-04 10:33 47.45488 -122.30504 441 ft 0 kts 184°
2026-05-04 10:39 47.45110 -122.30508 441 ft 12 kts 180°
2026-05-04 10:39 47.45027 -122.30548 441 ft 12 kts 229°
2026-05-04 10:39 47.45014 -122.30671 441 ft 12 kts 263°
2026-05-04 10:40 47.44971 -122.30776 441 ft 12 kts 210°
2026-05-04 10:40 47.44886 -122.30761 441 ft 13 kts 141°
2026-05-04 10:40 47.44836 -122.30700 441 ft 2 kts 141°
2026-05-04 10:40 47.44810 -122.30676 441 ft 7 kts 154°
2026-05-04 10:41 47.44783 -122.30660 441 ft 6 kts 158°
2026-05-04 10:41 47.44691 -122.30631 441 ft 20 kts 173°
2026-05-04 10:41 47.44585 -122.30632 441 ft 14 kts 182°
2026-05-04 10:41 47.44490 -122.30636 441 ft 13 kts 181°
2026-05-04 10:42 47.44403 -122.30634 441 ft 11 kts 179°
2026-05-04 10:42 47.44323 -122.30632 441 ft 10 kts 181°
2026-05-04 10:42 47.44249 -122.30634 441 ft 10 kts 181°
2026-05-04 10:42 47.44182 -122.30636 441 ft 9 kts 181°
2026-05-04 10:43 47.44120 -122.30637 441 ft 8 kts 181°
2026-05-04 10:44 47.43726 -122.30639 441 ft 9 kts 180°
2026-05-04 10:45 47.43663 -122.30630 441 ft 9 kts 168°
2026-05-04 10:45 47.43601 -122.30598 441 ft 9 kts 155°
2026-05-04 10:45 47.43538 -122.30569 441 ft 9 kts 169°
2026-05-04 10:45 47.43469 -122.30561 441 ft 9 kts 179°
2026-05-04 10:46 47.43399 -122.30560 441 ft 10 kts 180°
2026-05-04 10:46 47.43328 -122.30563 441 ft 10 kts 182°
2026-05-04 10:46 47.43257 -122.30575 441 ft 10 kts 194°
2026-05-04 10:46 47.43195 -122.30626 441 ft 10 kts 231°
2026-05-04 10:47 47.43179 -122.30729 441 ft 10 kts 281°
2026-05-04 10:47 47.43231 -122.30795 441 ft 10 kts 346°
2026-05-04 10:47 47.43278 -122.30803 441 ft 0 kts 358°
2026-05-04 10:49 47.47407 -122.30867 1351 ft 184 kts 357°
2026-05-04 10:49 47.48710 -122.30980 1965 ft 192 kts 358°
2026-05-04 10:50 47.50035 -122.31116 2718 ft 192 kts 358°
2026-05-04 10:51 47.58986 -122.34401 7461 ft 200 kts 323°
2026-05-04 10:52 47.60043 -122.35892 7734 ft 221 kts 308°
2026-05-04 10:52 47.60781 -122.38025 8073 ft 241 kts 288°
2026-05-04 10:52 47.61203 -122.40524 8467 ft 260 kts 284°
2026-05-04 10:54 47.62864 -122.62549 12190 ft 359 kts 276°
2026-05-04 10:54 47.63065 -122.66283 12741 ft 374 kts 276°
2026-05-04 10:56 47.65850 -122.94795 18292 ft 416 kts 300°
2026-05-04 10:56 47.67323 -122.98486 19125 ft 419 kts 305°
2026-05-04 10:56 47.68896 -123.02181 19973 ft 423 kts 305°
2026-05-04 10:57 47.70459 -123.05855 20752 ft 428 kts 305°
2026-05-04 10:57 47.72057 -123.09619 21531 ft 433 kts 305°
2026-05-04 10:57 47.73651 -123.13387 22281 ft 437 kts 305°
2026-05-04 10:57 47.75292 -123.17272 23011 ft 442 kts 306°
2026-05-04 10:58 47.76915 -123.21124 23737 ft 446 kts 305°
2026-05-04 10:58 47.78585 -123.25094 24490 ft 450 kts 306°
2026-05-04 10:58 47.80248 -123.29056 25156 ft 455 kts 306°
2026-05-04 10:58 47.81930 -123.33068 25748 ft 461 kts 306°
2026-05-04 10:59 47.83617 -123.37099 26446 ft 465 kts 306°
2026-05-04 10:59 47.85325 -123.41187 27110 ft 469 kts 306°
2026-05-04 10:59 47.87159 -123.45215 27768 ft 470 kts 312°
2026-05-04 10:59 47.89349 -123.48775 28400 ft 470 kts 321°
2026-05-04 11:00 47.91874 -123.51841 29057 ft 470 kts 327°
2026-05-04 11:01 48.09988 -123.71541 33978 ft 454 kts 328°
2026-05-04 11:02 48.12557 -123.74353 33994 ft 450 kts 328°
2026-05-04 11:05 48.50361 -124.16164 33978 ft 450 kts 328°
2026-05-04 11:06 48.55385 -124.21783 33977 ft 450 kts 328°
2026-05-04 11:06 48.60408 -124.27413 33984 ft 449 kts 328°
2026-05-04 11:10 48.95433 -124.67076 33927 ft 448 kts 327°